Year,Month,Day,Hour,Minute,Value (Times are PST for temperature in C)
2018,07,23,00,00,16.40
2018,07,23,00,01,16.40
2018,07,23,00,02,16.30
2018,07,23,00,03,16.30
2018,07,23,00,04,16.30
2018,07,23,00,05,16.30
2018,07,23,00,06,16.30
2018,07,23,00,07,16.20
2018,07,23,00,08,16.20
2018,07,23,00,09,16.20
2018,07,23,00,10,16.20
2018,07,23,00,11,16.20
2018,07,23,00,12,16.20
2018,07,23,00,13,16.20
2018,07,23,00,14,16.20
2018,07,23,00,15,16.20
2018,07,23,00,16,16.20
2018,07,23,00,17,16.20
2018,07,23,00,18,16.20
2018,07,23,00,19,16.20
2018,07,23,00,20,16.20
2018,07,23,00,21,16.10
2018,07,23,00,22,16.10
2018,07,23,00,23,16.10
2018,07,23,00,24,16.10
2018,07,23,00,25,16.00
2018,07,23,00,26,16.00
2018,07,23,00,27,16.00
2018,07,23,00,28,16.00
2018,07,23,00,29,16.00
2018,07,23,00,30,16.00
2018,07,23,00,31,16.00
2018,07,23,00,32,16.00
2018,07,23,00,33,16.00
2018,07,23,00,34,16.10
2018,07,23,00,35,16.10
2018,07,23,00,36,16.10
2018,07,23,00,37,16.10
2018,07,23,00,38,16.10
2018,07,23,00,39,16.10
2018,07,23,00,40,16.00
2018,07,23,00,41,16.00
2018,07,23,00,42,15.90
2018,07,23,00,43,15.90
2018,07,23,00,44,15.90
2018,07,23,00,45,15.90
2018,07,23,00,46,15.80
2018,07,23,00,47,15.80
2018,07,23,00,48,15.80
2018,07,23,00,49,15.70
2018,07,23,00,50,15.70
2018,07,23,00,51,15.70
2018,07,23,00,52,15.70
2018,07,23,00,53,15.70
2018,07,23,00,54,15.60
2018,07,23,00,55,15.60
2018,07,23,00,56,15.60
2018,07,23,00,57,15.50
2018,07,23,00,58,15.50
2018,07,23,00,59,15.50
2018,07,23,01,00,15.40
2018,07,23,01,01,15.40
2018,07,23,01,02,15.40
2018,07,23,01,03,15.40
2018,07,23,01,04,15.40
2018,07,23,01,05,15.30
2018,07,23,01,06,15.30
2018,07,23,01,07,15.30
2018,07,23,01,08,15.30
2018,07,23,01,09,15.30
2018,07,23,01,10,15.30
2018,07,23,01,11,15.30
2018,07,23,01,12,15.30
2018,07,23,01,13,15.30
2018,07,23,01,14,15.30
2018,07,23,01,15,15.30
2018,07,23,01,16,15.30
2018,07,23,01,17,15.30
2018,07,23,01,18,15.30
2018,07,23,01,19,15.30
2018,07,23,01,20,15.30
2018,07,23,01,21,15.30
2018,07,23,01,22,15.30
2018,07,23,01,23,15.30
2018,07,23,01,24,15.30
2018,07,23,01,25,15.30
2018,07,23,01,26,15.30
2018,07,23,01,27,15.30
2018,07,23,01,28,15.30
2018,07,23,01,29,15.30
2018,07,23,01,30,15.20
2018,07,23,01,31,15.20
2018,07,23,01,32,15.20
2018,07,23,01,33,15.20
2018,07,23,01,34,15.20
2018,07,23,01,35,15.20
2018,07,23,01,36,15.20
2018,07,23,01,37,15.20
2018,07,23,01,38,15.20
2018,07,23,01,39,15.20
2018,07,23,01,40,15.10
2018,07,23,01,41,15.10
2018,07,23,01,42,15.10
2018,07,23,01,43,15.10
2018,07,23,01,44,15.10
2018,07,23,01,45,15.10
2018,07,23,01,46,15.10
2018,07,23,01,47,15.10
2018,07,23,01,48,15.10
2018,07,23,01,49,15.10
2018,07,23,01,50,15.10
2018,07,23,01,51,15.10
2018,07,23,01,52,15.10
2018,07,23,01,53,15.10
2018,07,23,01,54,15.10
2018,07,23,01,55,15.10
2018,07,23,01,56,15.10
2018,07,23,01,57,15.10
2018,07,23,01,58,15.10
2018,07,23,01,59,15.10
2018,07,23,02,00,15.10
2018,07,23,02,01,15.10
2018,07,23,02,02,15.10
2018,07,23,02,03,15.10
2018,07,23,02,04,15.10
2018,07,23,02,05,15.10
2018,07,23,02,06,15.10
2018,07,23,02,07,15.10
2018,07,23,02,08,15.10
2018,07,23,02,09,15.10
2018,07,23,02,10,15.20
2018,07,23,02,11,15.20
2018,07,23,02,12,15.20
2018,07,23,02,13,15.20
2018,07,23,02,14,15.20
2018,07,23,02,15,15.20
2018,07,23,02,16,15.20
2018,07,23,02,17,15.20
2018,07,23,02,18,15.20
2018,07,23,02,19,15.20
2018,07,23,02,20,15.30
2018,07,23,02,21,15.30
2018,07,23,02,22,15.30
2018,07,23,02,23,15.30
2018,07,23,02,24,15.50
2018,07,23,02,25,15.50
2018,07,23,02,26,15.70
2018,07,23,02,27,15.80
2018,07,23,02,28,16.00
2018,07,23,02,29,16.20
2018,07,23,02,30,16.30
2018,07,23,02,31,16.50
2018,07,23,02,32,16.60
2018,07,23,02,33,16.80
2018,07,23,02,34,16.80
2018,07,23,02,35,16.90
2018,07,23,02,36,17.00
2018,07,23,02,37,17.00
2018,07,23,02,38,17.10
2018,07,23,02,39,17.10
2018,07,23,02,40,17.20
2018,07,23,02,41,17.20
2018,07,23,02,42,17.20
2018,07,23,02,43,17.20
2018,07,23,02,44,17.20
2018,07,23,02,45,17.30
2018,07,23,02,46,17.30
2018,07,23,02,47,17.30
2018,07,23,02,48,17.30
2018,07,23,02,49,17.30
2018,07,23,02,50,17.30
2018,07,23,02,51,17.30
2018,07,23,02,52,17.20
2018,07,23,02,53,17.20
2018,07,23,02,54,17.20
2018,07,23,02,55,17.20
2018,07,23,02,56,17.20
2018,07,23,02,57,17.20
2018,07,23,02,58,17.10
2018,07,23,02,59,17.10
2018,07,23,03,00,17.10
2018,07,23,03,01,17.10
2018,07,23,03,02,17.10
2018,07,23,03,03,17.10
2018,07,23,03,04,17.10
2018,07,23,03,05,17.10
2018,07,23,03,06,17.10
2018,07,23,03,07,17.10
2018,07,23,03,08,17.00
2018,07,23,03,09,17.00
2018,07,23,03,10,17.00
2018,07,23,03,11,16.90
2018,07,23,03,12,16.90
2018,07,23,03,13,16.90
2018,07,23,03,14,16.90
2018,07,23,03,15,16.80
2018,07,23,03,16,16.80
2018,07,23,03,17,16.80
2018,07,23,03,18,16.80
2018,07,23,03,19,16.80
2018,07,23,03,20,16.70
2018,07,23,03,21,16.70
2018,07,23,03,22,16.70
2018,07,23,03,23,16.60
2018,07,23,03,24,16.60
2018,07,23,03,25,16.60
2018,07,23,03,26,16.60
2018,07,23,03,27,16.50
2018,07,23,03,28,16.50
2018,07,23,03,29,16.40
2018,07,23,03,30,16.40
2018,07,23,03,31,16.40
2018,07,23,03,32,16.30
2018,07,23,03,33,16.30
2018,07,23,03,34,16.30
2018,07,23,03,35,16.30
2018,07,23,03,36,16.20
2018,07,23,03,37,16.20
2018,07,23,03,38,16.20
2018,07,23,03,39,16.20
2018,07,23,03,40,16.20
2018,07,23,03,41,16.20
2018,07,23,03,42,16.20
2018,07,23,03,43,16.20
2018,07,23,03,44,16.20
2018,07,23,03,45,16.20
2018,07,23,03,46,16.20
2018,07,23,03,47,16.20
2018,07,23,03,48,16.20
2018,07,23,03,49,16.20
2018,07,23,03,50,16.30
2018,07,23,03,51,16.30
2018,07,23,03,52,16.30
2018,07,23,03,53,16.30
2018,07,23,03,54,16.30
2018,07,23,03,55,16.30
2018,07,23,03,56,16.30
2018,07,23,03,57,16.30
2018,07,23,03,58,16.30
2018,07,23,03,59,16.30
2018,07,23,04,00,16.30
2018,07,23,04,01,16.40
2018,07,23,04,02,16.40
2018,07,23,04,03,16.40
2018,07,23,04,04,16.40
2018,07,23,04,05,16.40
2018,07,23,04,06,16.40
2018,07,23,04,07,16.30
2018,07,23,04,08,16.30
2018,07,23,04,09,16.30
2018,07,23,04,10,16.30
2018,07,23,04,11,16.30
2018,07,23,04,12,16.30
2018,07,23,04,13,16.30
2018,07,23,04,14,16.20
2018,07,23,04,15,16.20
2018,07,23,04,16,16.20
2018,07,23,04,17,16.20
2018,07,23,04,18,16.20
2018,07,23,04,19,16.20
2018,07,23,04,20,16.20
2018,07,23,04,21,16.20
2018,07,23,04,22,16.20
2018,07,23,04,23,16.10
2018,07,23,04,24,16.10
2018,07,23,04,25,16.10
2018,07,23,04,26,16.10
2018,07,23,04,27,16.10
2018,07,23,04,28,16.10
2018,07,23,04,29,16.10
2018,07,23,04,30,16.10
2018,07,23,04,31,16.10
2018,07,23,04,32,16.10
2018,07,23,04,33,16.10
2018,07,23,04,34,16.10
2018,07,23,04,35,16.10
2018,07,23,04,36,16.10
2018,07,23,04,37,16.10
2018,07,23,04,38,16.10
2018,07,23,04,39,16.00
2018,07,23,04,40,16.00
2018,07,23,04,41,16.00
2018,07,23,04,42,15.90
2018,07,23,04,43,15.90
2018,07,23,04,44,15.90
2018,07,23,04,45,15.80
2018,07,23,04,46,15.80
2018,07,23,04,47,15.80
2018,07,23,04,48,15.80
2018,07,23,04,49,15.80
2018,07,23,04,50,15.80
2018,07,23,04,51,15.80
2018,07,23,04,52,15.80
2018,07,23,04,53,15.80
2018,07,23,04,54,15.80
2018,07,23,04,55,15.80
2018,07,23,04,56,15.80
2018,07,23,04,57,15.80
2018,07,23,04,58,15.80
2018,07,23,04,59,15.80
2018,07,23,05,00,15.80
2018,07,23,05,01,15.80
2018,07,23,05,02,15.80
2018,07,23,05,03,15.80
2018,07,23,05,04,15.80
2018,07,23,05,05,15.80
2018,07,23,05,06,15.90
2018,07,23,05,07,15.90
2018,07,23,05,08,15.90
2018,07,23,05,09,15.90
2018,07,23,05,10,15.90
2018,07,23,05,11,15.90
2018,07,23,05,12,15.90
2018,07,23,05,13,15.90
2018,07,23,05,14,15.90
2018,07,23,05,15,15.90
2018,07,23,05,16,15.90
2018,07,23,05,17,15.90
2018,07,23,05,18,15.90
2018,07,23,05,19,15.90
2018,07,23,05,20,15.90
2018,07,23,05,21,15.90
2018,07,23,05,22,15.90
2018,07,23,05,23,15.90
2018,07,23,05,24,16.00
2018,07,23,05,25,16.00
2018,07,23,05,26,16.00
2018,07,23,05,27,16.00
2018,07,23,05,28,15.90
2018,07,23,05,29,15.90
2018,07,23,05,30,15.90
2018,07,23,05,31,15.90
2018,07,23,05,32,15.90
2018,07,23,05,33,15.90
2018,07,23,05,34,15.90
2018,07,23,05,35,15.80
2018,07,23,05,36,15.80
2018,07,23,05,37,15.80
2018,07,23,05,38,15.80
2018,07,23,05,39,15.80
2018,07,23,05,40,15.80
2018,07,23,05,41,15.80
2018,07,23,05,42,15.70
2018,07,23,05,43,15.70
2018,07,23,05,44,15.70
2018,07,23,05,45,15.70
2018,07,23,05,46,15.70
2018,07,23,05,47,15.60
2018,07,23,05,48,15.60
2018,07,23,05,49,15.60
2018,07,23,05,50,15.60
2018,07,23,05,51,15.60
2018,07,23,05,52,15.60
2018,07,23,05,53,15.50
2018,07,23,05,54,15.50
2018,07,23,05,55,15.50
2018,07,23,05,56,15.50
2018,07,23,05,57,15.50
2018,07,23,05,58,15.40
2018,07,23,05,59,15.40
2018,07,23,06,00,15.40
2018,07,23,06,01,15.40
2018,07,23,06,02,15.40
2018,07,23,06,03,15.40
2018,07,23,06,04,15.40
2018,07,23,06,05,15.40
2018,07,23,06,06,15.40
2018,07,23,06,07,15.40
2018,07,23,06,08,15.40
2018,07,23,06,09,15.40
2018,07,23,06,10,15.40
2018,07,23,06,11,15.40
2018,07,23,06,12,15.40
2018,07,23,06,13,15.40
2018,07,23,06,14,15.40
2018,07,23,06,15,15.40
2018,07,23,06,16,15.40
2018,07,23,06,17,15.50
2018,07,23,06,18,15.50
2018,07,23,06,19,15.50
2018,07,23,06,20,15.50
2018,07,23,06,21,15.60
2018,07,23,06,22,15.60
2018,07,23,06,23,15.60
2018,07,23,06,24,15.60
2018,07,23,06,25,15.60
2018,07,23,06,26,15.60
2018,07,23,06,27,15.70
2018,07,23,06,28,15.70
2018,07,23,06,29,15.70
2018,07,23,06,30,15.70
2018,07,23,06,31,15.70
2018,07,23,06,32,15.70
2018,07,23,06,33,15.80
2018,07,23,06,34,15.80
2018,07,23,06,35,15.80
2018,07,23,06,36,15.80
2018,07,23,06,37,15.80
2018,07,23,06,38,15.80
2018,07,23,06,39,15.90
2018,07,23,06,40,15.90
2018,07,23,06,41,15.90
2018,07,23,06,42,15.90
2018,07,23,06,43,16.00
2018,07,23,06,44,16.00
2018,07,23,06,45,16.00
2018,07,23,06,46,16.10
2018,07,23,06,47,16.10
2018,07,23,06,48,16.20
2018,07,23,06,49,16.20
2018,07,23,06,50,16.20
2018,07,23,06,51,16.30
2018,07,23,06,52,16.30
2018,07,23,06,53,16.30
2018,07,23,06,54,16.30
2018,07,23,06,55,16.30
2018,07,23,06,56,16.40
2018,07,23,06,57,16.40
2018,07,23,06,58,16.40
2018,07,23,06,59,16.40
2018,07,23,07,00,16.40
2018,07,23,07,01,16.40
2018,07,23,07,02,16.40
2018,07,23,07,03,16.40
2018,07,23,07,04,16.40
2018,07,23,07,05,16.40
2018,07,23,07,06,16.40
2018,07,23,07,07,16.30
2018,07,23,07,08,16.30
2018,07,23,07,09,16.30
2018,07,23,07,10,16.20
2018,07,23,07,11,16.20
2018,07,23,07,12,16.10
2018,07,23,07,13,16.00
2018,07,23,07,14,15.90
2018,07,23,07,15,15.80
2018,07,23,07,16,15.80
2018,07,23,07,17,15.70
2018,07,23,07,18,15.70
2018,07,23,07,19,15.60
2018,07,23,07,20,15.60
2018,07,23,07,21,15.50
2018,07,23,07,22,15.50
2018,07,23,07,23,15.50
2018,07,23,07,24,15.50
2018,07,23,07,25,15.50
2018,07,23,07,26,15.40
2018,07,23,07,27,15.40
2018,07,23,07,28,15.40
2018,07,23,07,29,15.40
2018,07,23,07,30,15.30
2018,07,23,07,31,15.30
2018,07,23,07,32,15.30
2018,07,23,07,33,15.30
2018,07,23,07,34,15.30
2018,07,23,07,35,15.30
2018,07,23,07,36,15.30
2018,07,23,07,37,15.30
2018,07,23,07,38,15.30
2018,07,23,07,39,15.30
2018,07,23,07,40,15.40
2018,07,23,07,41,15.40
2018,07,23,07,42,15.40
2018,07,23,07,43,15.40
2018,07,23,07,44,15.40
2018,07,23,07,45,15.40
2018,07,23,07,46,15.50
2018,07,23,07,47,15.50
2018,07,23,07,48,15.60
2018,07,23,07,49,15.60
2018,07,23,07,50,15.70
2018,07,23,07,51,15.70
2018,07,23,07,52,15.80
2018,07,23,07,53,15.80
2018,07,23,07,54,15.90
2018,07,23,07,55,15.90
2018,07,23,07,56,15.90
2018,07,23,07,57,16.00
2018,07,23,07,58,16.00
2018,07,23,07,59,16.00
2018,07,23,08,00,16.00
2018,07,23,08,01,16.00
2018,07,23,08,02,16.00
2018,07,23,08,03,16.00
2018,07,23,08,04,16.10
2018,07,23,08,05,16.10
2018,07,23,08,06,16.20
2018,07,23,08,07,16.30
2018,07,23,08,08,16.30
2018,07,23,08,09,16.40
2018,07,23,08,10,16.40
2018,07,23,08,11,16.50
2018,07,23,08,12,16.60
2018,07,23,08,13,16.60
2018,07,23,08,14,16.60
2018,07,23,08,15,16.70
2018,07,23,08,16,16.70
2018,07,23,08,17,16.60
2018,07,23,08,18,16.60
2018,07,23,08,19,16.60
2018,07,23,08,20,16.60
2018,07,23,08,21,16.50
2018,07,23,08,22,16.20
2018,07,23,08,23,16.10
2018,07,23,08,24,16.10
2018,07,23,08,25,16.10
2018,07,23,08,26,16.10
2018,07,23,08,27,16.20
2018,07,23,08,28,16.30
2018,07,23,08,29,16.30
2018,07,23,08,30,16.40
2018,07,23,08,31,16.40
2018,07,23,08,32,16.40
2018,07,23,08,33,16.40
2018,07,23,08,34,16.50
2018,07,23,08,35,16.50
2018,07,23,08,36,16.50
2018,07,23,08,37,16.50
2018,07,23,08,38,16.50
2018,07,23,08,39,16.50
2018,07,23,08,40,16.50
2018,07,23,08,41,16.50
2018,07,23,08,42,16.60
2018,07,23,08,43,16.60
2018,07,23,08,44,16.60
2018,07,23,08,45,16.70
2018,07,23,08,46,16.70
2018,07,23,08,47,16.70
2018,07,23,08,48,16.70
2018,07,23,08,49,16.80
2018,07,23,08,50,16.80
2018,07,23,08,51,16.80
2018,07,23,08,52,16.80
2018,07,23,08,53,16.80
2018,07,23,08,54,16.80
2018,07,23,08,55,16.80
2018,07,23,08,56,16.90
2018,07,23,08,57,16.90
2018,07,23,08,58,16.90
2018,07,23,08,59,16.90
2018,07,23,09,00,16.90
2018,07,23,09,01,17.00
2018,07,23,09,02,17.00
2018,07,23,09,03,17.10
2018,07,23,09,04,17.20
2018,07,23,09,05,17.20
2018,07,23,09,06,17.20
2018,07,23,09,07,17.20
2018,07,23,09,08,17.20
2018,07,23,09,09,17.20
2018,07,23,09,10,17.20
2018,07,23,09,11,17.10
2018,07,23,09,12,17.10
2018,07,23,09,13,17.20
2018,07,23,09,14,17.20
2018,07,23,09,15,17.20
2018,07,23,09,16,17.20
2018,07,23,09,17,17.20
2018,07,23,09,18,17.20
2018,07,23,09,19,17.10
2018,07,23,09,20,17.10
2018,07,23,09,21,17.10
2018,07,23,09,22,17.10
2018,07,23,09,23,17.00
2018,07,23,09,24,17.00
2018,07,23,09,25,17.00
2018,07,23,09,26,17.00
2018,07,23,09,27,17.00
2018,07,23,09,28,17.00
2018,07,23,09,29,17.00
2018,07,23,09,30,17.00
2018,07,23,09,31,16.90
2018,07,23,09,32,16.80
2018,07,23,09,33,16.70
2018,07,23,09,34,16.70
2018,07,23,09,35,16.60
2018,07,23,09,36,16.60
2018,07,23,09,37,16.70
2018,07,23,09,38,16.60
2018,07,23,09,39,16.50
2018,07,23,09,40,16.40
2018,07,23,09,41,16.40
2018,07,23,09,42,16.30
2018,07,23,09,43,16.30
2018,07,23,09,44,16.40
2018,07,23,09,45,16.40
2018,07,23,09,46,16.40
2018,07,23,09,47,16.40
2018,07,23,09,48,16.50
2018,07,23,09,49,16.60
2018,07,23,09,50,16.60
2018,07,23,09,51,16.70
2018,07,23,09,52,16.70
2018,07,23,09,53,16.80
2018,07,23,09,54,16.80
2018,07,23,09,55,16.90
2018,07,23,09,56,16.90
2018,07,23,09,57,16.90
2018,07,23,09,58,16.90
2018,07,23,09,59,17.00
2018,07,23,10,00,17.10
2018,07,23,10,01,17.10
2018,07,23,10,02,17.10
2018,07,23,10,03,17.10
2018,07,23,10,04,17.20
2018,07,23,10,05,17.20
2018,07,23,10,06,17.20
2018,07,23,10,07,17.30
2018,07,23,10,08,17.40
2018,07,23,10,09,17.40
2018,07,23,10,10,17.50
2018,07,23,10,11,17.50
2018,07,23,10,12,17.60
2018,07,23,10,13,17.70
2018,07,23,10,14,17.80
2018,07,23,10,15,17.80
2018,07,23,10,16,17.90
2018,07,23,10,17,17.90
2018,07,23,10,18,17.90
2018,07,23,10,19,18.00
2018,07,23,10,20,18.10
2018,07,23,10,21,18.10
2018,07,23,10,22,18.20
2018,07,23,10,23,18.20
2018,07,23,10,24,18.20
2018,07,23,10,25,18.20
2018,07,23,10,26,18.20
2018,07,23,10,27,18.30
2018,07,23,10,28,18.30
2018,07,23,10,29,18.40
2018,07,23,10,30,18.50
2018,07,23,10,31,18.60
2018,07,23,10,32,18.60
2018,07,23,10,33,18.60
2018,07,23,10,34,18.60
2018,07,23,10,35,18.70
2018,07,23,10,36,18.70
2018,07,23,10,37,18.70
2018,07,23,10,38,18.70
2018,07,23,10,39,18.70
2018,07,23,10,40,18.80
2018,07,23,10,41,18.70
2018,07,23,10,42,18.80
2018,07,23,10,43,18.80
2018,07,23,10,44,18.70
2018,07,23,10,45,18.70
2018,07,23,10,46,18.70
2018,07,23,10,47,18.70
2018,07,23,10,48,18.70
2018,07,23,10,49,18.70
2018,07,23,10,50,18.70
2018,07,23,10,51,18.70
2018,07,23,10,52,18.80
2018,07,23,10,53,18.80
2018,07,23,10,54,18.70
2018,07,23,10,55,18.50
2018,07,23,10,56,18.40
2018,07,23,10,57,18.30
2018,07,23,10,58,18.20
2018,07,23,10,59,18.20
2018,07,23,11,00,18.30
2018,07,23,11,01,18.30
2018,07,23,11,02,18.40
2018,07,23,11,03,18.40
2018,07,23,11,04,18.50
2018,07,23,11,05,18.50
2018,07,23,11,06,18.60
2018,07,23,11,07,18.80
2018,07,23,11,08,18.90
2018,07,23,11,09,19.00
2018,07,23,11,10,19.10
2018,07,23,11,11,19.10
2018,07,23,11,12,19.20
2018,07,23,11,13,19.20
2018,07,23,11,14,19.20
2018,07,23,11,15,19.20
2018,07,23,11,16,19.30
2018,07,23,11,17,19.30
2018,07,23,11,18,19.30
2018,07,23,11,19,19.30
2018,07,23,11,20,19.30
2018,07,23,11,21,19.30
2018,07,23,11,22,19.40
2018,07,23,11,23,19.40
2018,07,23,11,24,19.40
2018,07,23,11,25,19.50
2018,07,23,11,26,19.50
2018,07,23,11,27,19.60
2018,07,23,11,28,19.70
2018,07,23,11,29,19.80
2018,07,23,11,30,19.90
2018,07,23,11,31,20.10
2018,07,23,11,32,20.20
2018,07,23,11,33,20.20
2018,07,23,11,34,20.20
2018,07,23,11,35,20.30
2018,07,23,11,36,20.30
2018,07,23,11,37,20.30
2018,07,23,11,38,20.40
2018,07,23,11,39,20.50
2018,07,23,11,40,20.60
2018,07,23,11,41,20.70
2018,07,23,11,42,20.80
2018,07,23,11,43,20.90
2018,07,23,11,44,21.00
2018,07,23,11,45,21.20
2018,07,23,11,46,21.30
2018,07,23,11,47,21.50
2018,07,23,11,48,21.60
2018,07,23,11,49,21.70
2018,07,23,11,50,21.80
2018,07,23,11,51,21.90
2018,07,23,11,52,22.00
2018,07,23,11,53,22.10
2018,07,23,11,54,22.00
2018,07,23,11,55,21.90
2018,07,23,11,56,21.90
2018,07,23,11,57,21.90
2018,07,23,11,58,21.90
2018,07,23,11,59,21.90
2018,07,23,12,00,21.90
2018,07,23,12,01,21.80
2018,07,23,12,02,21.80
2018,07,23,12,03,21.70
2018,07,23,12,04,21.70
2018,07,23,12,05,21.70
2018,07,23,12,06,21.60
2018,07,23,12,07,21.50
2018,07,23,12,08,21.50
2018,07,23,12,09,21.40
2018,07,23,12,10,21.40
2018,07,23,12,11,21.40
2018,07,23,12,12,21.30
2018,07,23,12,13,21.30
2018,07,23,12,14,21.30
2018,07,23,12,15,21.30
2018,07,23,12,16,21.30
2018,07,23,12,17,21.40
2018,07,23,12,18,21.40
2018,07,23,12,19,21.50
2018,07,23,12,20,21.60
2018,07,23,12,21,21.70
2018,07,23,12,22,21.80
2018,07,23,12,23,21.80
2018,07,23,12,24,21.90
2018,07,23,12,25,22.00
2018,07,23,12,26,22.10
2018,07,23,12,27,22.20
2018,07,23,12,28,22.20
2018,07,23,12,29,22.20
2018,07,23,12,30,22.20
2018,07,23,12,31,22.30
2018,07,23,12,32,22.30
2018,07,23,12,33,22.40
2018,07,23,12,34,22.50
2018,07,23,12,35,22.60
2018,07,23,12,36,22.80
2018,07,23,12,37,23.00
2018,07,23,12,38,23.10
2018,07,23,12,39,23.30
2018,07,23,12,40,23.40
2018,07,23,12,41,23.40
2018,07,23,12,42,23.40
2018,07,23,12,43,23.40
2018,07,23,12,44,23.40
2018,07,23,12,45,23.40
2018,07,23,12,46,23.40
2018,07,23,12,47,23.50
2018,07,23,12,48,23.60
2018,07,23,12,49,23.70
2018,07,23,12,50,23.80
2018,07,23,12,51,23.90
2018,07,23,12,52,23.90
2018,07,23,12,53,24.00
2018,07,23,12,54,24.00
2018,07,23,12,55,24.00
2018,07,23,12,56,24.10
2018,07,23,12,57,24.10
2018,07,23,12,58,24.10
2018,07,23,12,59,24.10
2018,07,23,13,00,24.10
2018,07,23,13,01,24.10
2018,07,23,13,02,24.10
2018,07,23,13,03,24.20
2018,07,23,13,04,24.20
2018,07,23,13,05,24.20
2018,07,23,13,06,24.20
2018,07,23,13,07,24.20
2018,07,23,13,08,24.20
2018,07,23,13,09,24.20
2018,07,23,13,10,24.30
2018,07,23,13,11,24.40
2018,07,23,13,12,24.50
2018,07,23,13,13,24.60
2018,07,23,13,14,24.70
2018,07,23,13,15,24.80
2018,07,23,13,16,24.80
2018,07,23,13,17,24.90
2018,07,23,13,18,25.00
2018,07,23,13,19,25.10
2018,07,23,13,20,25.20
2018,07,23,13,21,25.30
2018,07,23,13,22,25.40
2018,07,23,13,23,25.40
2018,07,23,13,24,25.50
2018,07,23,13,25,25.50
2018,07,23,13,26,25.50
2018,07,23,13,27,25.50
2018,07,23,13,28,25.50
2018,07,23,13,29,25.60
2018,07,23,13,30,25.60
2018,07,23,13,31,25.60
2018,07,23,13,32,25.60
2018,07,23,13,33,25.60
2018,07,23,13,34,25.50
2018,07,23,13,35,25.40
2018,07,23,13,36,25.30
2018,07,23,13,37,25.30
2018,07,23,13,38,25.30
2018,07,23,13,39,25.30
2018,07,23,13,40,25.30
2018,07,23,13,41,25.40
2018,07,23,13,42,25.50
2018,07,23,13,43,25.60
2018,07,23,13,44,25.60
2018,07,23,13,45,25.70
2018,07,23,13,46,25.70
2018,07,23,13,47,25.70
2018,07,23,13,48,25.60
2018,07,23,13,49,25.60
2018,07,23,13,50,25.70
2018,07,23,13,51,25.70
2018,07,23,13,52,25.70
2018,07,23,13,53,25.80
2018,07,23,13,54,25.80
2018,07,23,13,55,25.70
2018,07,23,13,56,25.70
2018,07,23,13,57,25.70
2018,07,23,13,58,25.70
2018,07,23,13,59,25.70
2018,07,23,14,00,25.70
2018,07,23,14,01,25.70
2018,07,23,14,02,25.70
2018,07,23,14,03,25.60
2018,07,23,14,04,25.60
2018,07,23,14,05,25.50
2018,07,23,14,06,25.50
2018,07,23,14,07,25.40
2018,07,23,14,08,25.40
2018,07,23,14,09,25.40
2018,07,23,14,10,25.40
2018,07,23,14,11,25.40
2018,07,23,14,12,25.40
2018,07,23,14,13,25.50
2018,07,23,14,14,25.50
2018,07,23,14,15,25.60
2018,07,23,14,16,25.60
2018,07,23,14,17,25.70
2018,07,23,14,18,25.60
2018,07,23,14,19,25.70
2018,07,23,14,20,25.70
2018,07,23,14,21,25.70
2018,07,23,14,22,25.70
2018,07,23,14,23,25.80
2018,07,23,14,24,25.80
2018,07,23,14,25,25.80
2018,07,23,14,26,25.80
2018,07,23,14,27,25.90
2018,07,23,14,28,25.90
2018,07,23,14,29,25.90
2018,07,23,14,30,26.00
2018,07,23,14,31,26.00
2018,07,23,14,32,26.10
2018,07,23,14,33,26.10
2018,07,23,14,34,26.10
2018,07,23,14,35,26.10
2018,07,23,14,36,26.10
2018,07,23,14,37,26.10
2018,07,23,14,38,26.00
2018,07,23,14,39,26.00
2018,07,23,14,40,26.10
2018,07,23,14,41,26.10
2018,07,23,14,42,26.10
2018,07,23,14,43,26.20
2018,07,23,14,44,26.20
2018,07,23,14,45,26.30
2018,07,23,14,46,26.30
2018,07,23,14,47,26.30
2018,07,23,14,48,26.30
2018,07,23,14,49,26.30
2018,07,23,14,50,26.30
2018,07,23,14,51,26.30
2018,07,23,14,52,26.30
2018,07,23,14,53,26.30
2018,07,23,14,54,26.30
2018,07,23,14,55,26.20
2018,07,23,14,56,26.20
2018,07,23,14,57,26.30
2018,07,23,14,58,26.30
2018,07,23,14,59,26.30
2018,07,23,15,00,26.30
2018,07,23,15,01,26.40
2018,07,23,15,02,26.40
2018,07,23,15,03,26.40
2018,07,23,15,04,26.50
2018,07,23,15,05,26.50
2018,07,23,15,06,26.60
2018,07,23,15,07,26.60
2018,07,23,15,08,26.60
2018,07,23,15,09,26.60
2018,07,23,15,10,26.60
2018,07,23,15,11,26.50
2018,07,23,15,12,26.50
2018,07,23,15,13,26.50
2018,07,23,15,14,26.60
2018,07,23,15,15,26.60
2018,07,23,15,16,26.60
2018,07,23,15,17,26.60
2018,07,23,15,18,26.60
2018,07,23,15,19,26.60
2018,07,23,15,20,26.60
2018,07,23,15,21,26.60
2018,07,23,15,22,26.60
2018,07,23,15,23,26.60
2018,07,23,15,24,26.60
2018,07,23,15,25,26.60
2018,07,23,15,26,26.50
2018,07,23,15,27,26.50
2018,07,23,15,28,26.50
2018,07,23,15,29,26.40
2018,07,23,15,30,26.40
2018,07,23,15,31,26.40
2018,07,23,15,32,26.50
2018,07,23,15,33,26.40
2018,07,23,15,34,26.40
2018,07,23,15,35,26.40
2018,07,23,15,36,26.30
2018,07,23,15,37,26.30
2018,07,23,15,38,26.30
2018,07,23,15,39,26.30
2018,07,23,15,40,26.30
2018,07,23,15,41,26.30
2018,07,23,15,42,26.30
2018,07,23,15,43,26.30
2018,07,23,15,44,26.30
2018,07,23,15,45,26.30
2018,07,23,15,46,26.40
2018,07,23,15,47,26.40
2018,07,23,15,48,26.50
2018,07,23,15,49,26.50
2018,07,23,15,50,26.60
2018,07,23,15,51,26.60
2018,07,23,15,52,26.70
2018,07,23,15,53,26.70
2018,07,23,15,54,26.70
2018,07,23,15,55,26.70
2018,07,23,15,56,26.80
2018,07,23,15,57,26.80
2018,07,23,15,58,26.80
2018,07,23,15,59,26.80
2018,07,23,16,00,26.80
2018,07,23,16,01,26.80
2018,07,23,16,02,26.80
2018,07,23,16,03,26.80
2018,07,23,16,04,26.80
2018,07,23,16,05,26.80
2018,07,23,16,06,26.80
2018,07,23,16,07,26.90
2018,07,23,16,08,26.90
2018,07,23,16,09,27.00
2018,07,23,16,10,27.00
2018,07,23,16,11,27.10
2018,07,23,16,12,27.10
2018,07,23,16,13,27.20
2018,07,23,16,14,27.30
2018,07,23,16,15,27.40
2018,07,23,16,16,27.50
2018,07,23,16,17,27.60
2018,07,23,16,18,27.60
2018,07,23,16,19,27.70
2018,07,23,16,20,27.70
2018,07,23,16,21,27.70
2018,07,23,16,22,27.70
2018,07,23,16,23,27.70
2018,07,23,16,24,27.80
2018,07,23,16,25,27.80
2018,07,23,16,26,27.80
2018,07,23,16,27,27.70
2018,07,23,16,28,27.70
2018,07,23,16,29,27.60
2018,07,23,16,30,27.60
2018,07,23,16,31,27.60
2018,07,23,16,32,27.50
2018,07,23,16,33,27.50
2018,07,23,16,34,27.50
2018,07,23,16,35,27.40
2018,07,23,16,36,27.40
2018,07,23,16,37,27.40
2018,07,23,16,38,27.40
2018,07,23,16,39,27.40
2018,07,23,16,40,27.40
2018,07,23,16,41,27.40
2018,07,23,16,42,27.40
2018,07,23,16,43,27.40
2018,07,23,16,44,27.40
2018,07,23,16,45,27.30
2018,07,23,16,46,27.30
2018,07,23,16,47,27.20
2018,07,23,16,48,27.20
2018,07,23,16,49,27.20
2018,07,23,16,50,27.10
2018,07,23,16,51,27.10
2018,07,23,16,52,27.10
2018,07,23,16,53,27.00
2018,07,23,16,54,27.10
2018,07,23,16,55,27.10
2018,07,23,16,56,27.10
2018,07,23,16,57,27.10
2018,07,23,16,58,27.10
2018,07,23,16,59,27.10
2018,07,23,17,00,27.10
2018,07,23,17,01,27.10
2018,07,23,17,02,27.10
2018,07,23,17,03,27.10
2018,07,23,17,04,27.10
2018,07,23,17,05,27.10
2018,07,23,17,06,27.10
2018,07,23,17,07,27.20
2018,07,23,17,08,27.20
2018,07,23,17,09,27.30
2018,07,23,17,10,27.30
2018,07,23,17,11,27.30
2018,07,23,17,12,27.40
2018,07,23,17,13,27.40
2018,07,23,17,14,27.50
2018,07,23,17,15,27.50
2018,07,23,17,16,27.60
2018,07,23,17,17,27.60
2018,07,23,17,18,27.60
2018,07,23,17,19,27.60